Date String (YYYY-MM-DD hh:mm:ss) UTC,Instrument flags,absolute air pressure of the measurement (hPa),sample flow rate (lpm),inlet stack bypass flow (lpm),air temperature of the measurement (°C),ambient temperature measured by the external sensor (°C),aerosol sample conditioner tube jacket temperature (°C),OPC LED temperature (°C),internal box temperature (°C),relative humidity of the measurement (%),span deviation,mass concentration of particles derived from Lorenz-Mie calculation of OPC scattering (μg/m³),mass concentration of particles derived from Lorenz-Mie calculation of OPC scattering (μg/m³),mass concentration of particles derived from Lorenz-Mie calculation of OPC scattering (μg/m³)
DateTimeUTC,F1_M11,P_M11,Q1_M11,Q2_M11,T1_M11,T2_M11,T3_M11,T4_M11,T5_M11,U1_M11,ZSPAN_M11,X2_M11,X0_M11,X1_M11
2024-04-08 02:00:00,SystemResetWarning,0822.0,5.00,000.00,019.4,018.5,000.0,027.9,020.9,010.9,0000.0,0001.68,0004.16,0001.08
2024-04-08 02:01:00,SystemResetWarning,0822.1,5.00,000.00,019.4,018.5,000.0,027.8,020.9,010.8,0000.0,0001.68,0004.06,0001.07
2024-04-08 02:02:00,SystemResetWarning,0822.1,5.00,000.00,019.3,018.5,000.0,027.8,020.9,011.2,0000.0,0001.65,0003.82,0001.07
2024-04-08 02:03:00,SystemResetWarning,0822.2,5.00,000.00,019.3,018.5,000.0,027.8,020.9,011.4,0000.0,0001.53,0003.07,0001.06
2024-04-08 02:04:00,SystemResetWarning,0822.1,5.00,000.00,019.3,018.5,000.0,027.8,020.9,011.4,0000.0,0001.55,0003.23,0001.06
2024-04-08 02:05:00,SystemResetWarning,0822.1,5.00,000.00,019.3,018.5,000.0,027.8,020.9,011.4,0000.0,0001.52,0004.39,0001.05
2024-04-08 02:06:00,SystemResetWarning,0822.2,5.00,000.00,019.3,018.4,000.0,027.8,020.8,011.7,0000.0,0001.54,0004.47,0001.04
2024-04-08 02:07:00,SystemResetWarning,0822.1,5.00,000.00,019.3,018.4,000.0,027.7,020.8,011.7,0000.0,0001.50,0004.44,0001.03
2024-04-08 02:08:00,SystemResetWarning,0822.3,5.00,000.00,019.3,018.4,000.0,027.7,020.8,011.8,0000.0,0001.51,0004.65,0001.02
2024-04-08 02:09:00,SystemResetWarning,0822.3,5.00,000.00,019.2,018.4,000.0,027.7,020.8,011.8,0000.0,0001.49,0004.61,0001.01
2024-04-08 02:10:00,SystemResetWarning,0822.4,5.00,000.00,019.2,018.4,000.0,027.7,020.8,011.5,0000.0,0001.49,0004.60,0000.99
2024-04-08 02:11:00,SystemResetWarning,0822.3,5.00,000.00,019.2,018.3,000.0,027.7,020.8,011.7,0000.0,0001.52,0004.75,0000.98
2024-04-08 02:12:00,SystemResetWarning,0822.4,5.00,000.00,019.2,018.3,000.0,027.7,020.8,011.5,0000.0,0001.53,0004.76,0000.98
2024-04-08 02:13:00,SystemResetWarning,0822.3,5.00,000.00,019.2,018.3,000.0,027.7,020.8,011.6,0000.0,0001.53,0004.68,0000.97
2024-04-08 02:14:00,SystemResetWarning,0822.4,5.00,000.00,019.2,018.3,000.0,027.7,020.7,011.6,0000.0,0001.59,0004.90,0000.97
2024-04-08 02:15:00,SystemResetWarning,0822.4,5.00,000.00,019.1,018.3,000.0,027.6,020.8,011.5,0000.0,0001.60,0004.96,0000.96
2024-04-08 02:16:00,SystemResetWarning,0822.4,5.00,000.00,019.1,018.3,000.0,027.6,020.7,011.8,0000.0,0001.67,0003.81,0000.97
2024-04-08 02:17:00,SystemResetWarning,0822.4,5.00,000.00,019.1,018.3,000.0,027.6,020.7,011.7,0000.0,0001.66,0003.79,0000.96
2024-04-08 02:18:00,SystemResetWarning,0822.6,5.00,000.00,019.1,018.3,000.0,027.6,020.7,011.5,0000.0,0001.62,0003.70,0000.95
2024-04-08 02:19:00,SystemResetWarning,0822.6,5.00,000.00,019.1,018.3,000.0,027.6,020.7,011.6,0000.0,0001.60,0003.45,0000.96
2024-04-08 02:20:00,SystemResetWarning,0822.7,5.00,000.00,019.1,018.2,000.0,027.6,020.7,011.7,0000.0,0001.60,0003.46,0000.96
2024-04-08 02:21:00,SystemResetWarning,0822.9,5.00,000.00,019.1,018.2,000.0,027.6,020.7,011.9,0000.0,0001.62,0003.49,0000.96
2024-04-08 02:22:00,SystemResetWarning,0822.9,5.00,000.00,019.1,018.2,000.0,027.6,020.7,011.8,0000.0,0001.61,0003.43,0000.95
2024-04-08 02:23:00,SystemResetWarning,0822.8,5.00,000.00,019.1,018.2,000.0,027.6,020.7,011.8,0000.0,0001.56,0003.31,0000.95
2024-04-08 02:24:00,SystemResetWarning,0822.7,5.00,000.00,019.0,018.2,000.0,027.6,020.7,011.8,0000.0,0001.57,0003.36,0000.94
2024-04-08 02:25:00,SystemResetWarning,0822.7,5.01,000.00,019.0,018.2,000.0,027.6,020.6,011.9,0000.0,0001.56,0003.35,0000.94
2024-04-08 02:26:00,SystemResetWarning,0822.7,5.00,000.00,019.0,018.2,000.0,027.6,020.6,011.8,0000.0,0001.50,0003.51,0000.93
2024-04-08 02:27:00,SystemResetWarning,0822.7,5.00,000.00,019.0,018.2,000.0,027.6,020.6,011.9,0000.0,0001.41,0003.74,0000.92
2024-04-08 02:28:00,SystemResetWarning,0822.9,5.01,000.00,019.0,018.2,000.0,027.5,020.6,012.0,0000.0,0001.41,0003.49,0000.93
2024-04-08 02:29:00,SystemResetWarning,0823.0,5.00,000.00,019.0,018.2,000.0,027.5,020.6,012.0,0000.0,0001.43,0003.47,0000.94
2024-04-08 02:30:00,SystemResetWarning,0823.1,5.00,000.00,019.0,018.2,000.0,027.5,020.6,012.2,0000.0,0001.43,0003.46,0000.94
2024-04-08 02:31:00,SystemResetWarning,0823.0,5.00,000.00,019.0,018.2,000.0,027.5,020.6,012.2,0000.0,0001.45,0003.45,0000.94
2024-04-08 02:32:00,SystemResetWarning,0822.8,5.00,000.00,018.9,018.2,000.0,027.5,020.6,012.4,0000.0,0001.41,0003.36,0000.94
2024-04-08 02:33:00,SystemResetWarning,0822.9,5.00,000.00,018.9,018.2,000.0,027.5,020.6,012.4,0000.0,0001.38,0003.24,0000.94
2024-04-08 02:34:00,SystemResetWarning,0823.0,5.00,000.00,018.9,018.2,000.0,027.5,020.6,012.4,0000.0,0001.39,0003.28,0000.93
2024-04-08 02:35:00,SystemResetWarning,0823.0,5.00,000.00,018.9,018.2,000.0,027.5,020.6,012.4,0000.0,0001.40,0003.27,0000.94
2024-04-08 02:36:00,SystemResetWarning,0822.9,5.00,000.00,018.9,018.1,000.0,027.5,020.6,012.3,0000.0,0001.36,0003.21,0000.94
2024-04-08 02:37:00,SystemResetWarning,0823.2,5.00,000.00,018.9,018.1,000.0,027.5,020.6,012.4,0000.0,0001.41,0003.98,0000.93
2024-04-08 02:38:00,SystemResetWarning,0822.9,4.99,000.00,018.9,018.1,000.0,027.4,020.6,012.4,0000.0,0001.49,0004.41,0000.93
2024-04-08 02:39:00,SystemResetWarning,0823.0,5.00,000.00,018.9,018.1,000.0,027.4,020.6,012.4,0000.0,0001.51,0004.62,0000.94
2024-04-08 02:40:00,SystemResetWarning,0822.9,5.01,000.00,018.9,018.1,000.0,027.4,020.6,012.4,0000.0,0001.54,0005.67,0000.93
2024-04-08 02:41:00,SystemResetWarning,0823.0,4.99,000.00,018.9,018.1,000.0,027.4,020.6,012.4,0000.0,0001.56,0005.74,0000.93
2024-04-08 02:42:00,SystemResetWarning,0822.9,5.00,000.00,018.9,018.1,000.0,027.4,020.5,012.3,0000.0,0001.58,0005.86,0000.94
2024-04-08 02:43:00,SystemResetWarning,0822.8,5.00,000.00,018.9,018.1,000.0,027.4,020.5,012.2,0000.0,0001.64,0006.04,0000.94
2024-04-08 02:44:00,SystemResetWarning,0823.1,5.00,000.00,018.9,018.1,000.0,027.4,020.5,012.2,0000.0,0001.67,0006.14,0000.95
2024-04-08 02:45:00,SystemResetWarning,0823.1,5.00,000.00,018.8,018.1,000.0,027.4,020.5,012.0,0000.0,0001.70,0006.26,0000.96
2024-04-08 02:46:00,SystemResetWarning,0823.2,5.00,000.00,018.8,018.0,000.0,027.4,020.5,011.9,0000.0,0001.76,0006.46,0000.96
2024-04-08 02:47:00,SystemResetWarning,0822.9,5.00,000.00,018.8,018.0,000.0,027.4,020.5,011.8,0000.0,0001.79,0006.44,0000.97
2024-04-08 02:48:00,SystemResetWarning,0822.9,5.00,000.00,018.8,018.0,000.0,027.4,020.5,011.7,0000.0,0001.81,0005.76,0001.00
2024-04-08 02:49:00,SystemResetWarning,0822.9,5.00,000.00,018.8,018.0,000.0,027.4,020.4,011.9,0000.0,0001.74,0004.76,0001.01
2024-04-08 02:50:00,SystemResetWarning,0823.0,5.00,000.00,018.8,018.0,000.0,027.4,020.4,012.0,0000.0,0001.72,0004.86,0001.01
2024-04-08 02:51:00,SystemResetWarning,0823.0,5.00,000.00,018.8,018.0,000.0,027.3,020.4,012.2,0000.0,0001.71,0003.81,0001.01
2024-04-08 02:52:00,SystemResetWarning,0822.7,5.00,000.00,018.8,018.0,000.0,027.3,020.4,012.1,0000.0,0001.73,0003.62,0001.01
2024-04-08 02:53:00,SystemResetWarning,0822.7,5.00,000.00,018.8,018.0,000.0,027.3,020.4,011.8,0000.0,0001.73,0003.57,0001.01
2024-04-08 02:54:00,SystemResetWarning,0822.8,5.00,000.00,018.8,018.0,000.0,027.3,020.4,011.8,0000.0,0001.68,0003.48,0001.01
2024-04-08 02:55:00,SystemResetWarning,0823.1,5.00,000.00,018.7,018.0,000.0,027.3,020.3,011.8,0000.0,0001.64,0003.39,0001.00
2024-04-08 02:56:00,SystemResetWarning,0823.0,5.01,000.00,018.7,017.9,000.0,027.3,020.3,011.9,0000.0,0001.67,0003.50,0001.00
2024-04-08 02:57:00,SystemResetWarning,0823.0,5.00,000.00,018.7,017.9,000.0,027.3,020.3,012.0,0000.0,0001.61,0003.25,0001.00
2024-04-08 02:58:00,SystemResetWarning,0823.1,5.00,000.00,018.7,017.9,000.0,027.2,020.3,012.0,0000.0,0001.61,0003.29,0001.00
2024-04-08 02:59:00,SystemResetWarning,0823.1,5.00,000.00,018.7,017.9,000.0,027.2,020.3,012.1,0000.0,0001.57,0003.26,0000.98
